Weather History for Lakehurst NAS, NJ

Change the Weather History Date:

Wednesday, October 31, 2012

  Actual Average Record
Temperature  
Mean Temperature 45 °F -  
Max Temperature 37 °F 59 °F 71 °F (2005)
Min Temperature 39 °F 42 °F 33 °F (1997)
Degree Days  
Heating Degree Days 20    
Moisture  
Dew Point 39 °F    
Average Humidity 79    
Maximum Humidity 93    
Minimum Humidity 59    
Precipitation  
Precipitation 0.00 in - - ()
Sea Level Pressure  
Sea Level Pressure 29.54 in    
Wind  
Wind Speed 4 mph (SW)    
Max Wind Speed 13 mph    
Max Gust Speed 18 mph    
Visibility 10 miles    
Events      
Averages and records for this station are not official NWS values.
T = Trace of Precipitation, MM = Missing Value Source: NWS Daily Summary

Daily Weather History Graph

Daily Weather History Graph

Search for Another Location

Airport:

Trip Planner

Search our weather history database for the weather conditions in past years. The results will help you decide how hot, cold, wet, or windy it might be!

Date:

Astronomy

Oct. 31, 2012 Rise Set
Actual Time 7:25 AM EDT 5:55 PM EDT
Civil Twilight 6:57 AM EDT 6:23 PM EDT
Nautical Twilight 6:25 AM EDT 6:55 PM EDT
Astronomical Twilight 5:54 AM EDT 7:27 PM EDT
Moon 7:04 PM EDT (10/31) 9:04 AM EDT (10/31)
Length of Visible Light 11h 25m
Length of Day
10h 29m
Full, 97% of the Moon is Illuminated
Oct 31
Full
Nov 6
Last Quarter
Nov 13
New
Nov 20
First Quarter
Nov 28
Full

Hourly Weather History & Observations

Time (EDT) Temp. Windchill Dew Point Humidity Pressure Visibility Wind Dir Wind Speed Gust Speed Precip Events Conditions
12:00 AM 44.1 °F 42.5 °F 39.9 °F 85% 29.49 in 10.0 mi SW 3.5 mph - N/A   Overcast
1:00 AM 44.1 °F 41.5 °F 39.9 °F 85% 29.49 in 10.0 mi South 4.6 mph - N/A   Mostly Cloudy
2:00 AM 43.0 °F 41.3 °F 39.0 °F 86% 29.49 in 10.0 mi SSW 3.5 mph - N/A   Scattered Clouds
3:00 AM 42.1 °F - 39.0 °F 89% 29.49 in 10.0 mi Calm Calm - N/A   Mostly Cloudy
4:00 AM 42.1 °F - 39.9 °F 92% 29.49 in 10.0 mi Calm Calm - N/A   Overcast
5:00 AM 43.0 °F - 39.9 °F 89% 29.50 in 10.0 mi Calm Calm - N/A   Overcast
6:00 AM 43.0 °F 41.3 °F 39.9 °F 89% 29.51 in 10.0 mi SSW 3.5 mph - N/A   Overcast
7:00 AM 43.0 °F 40.3 °F 39.9 °F 89% 29.52 in 10.0 mi SW 4.6 mph - N/A   Overcast
8:00 AM 43.0 °F 40.3 °F 39.9 °F 89% 29.54 in 10.0 mi SSW 4.6 mph - N/A   Overcast
9:00 AM 45.0 °F 40.6 °F 39.9 °F 82% 29.55 in 10.0 mi WSW 8.1 mph - N/A   Mostly Cloudy
10:00 AM 46.9 °F - 37.9 °F 71% 29.55 in 10.0 mi WSW 12.7 mph 18.4 mph N/A   Scattered Clouds
11:00 AM 48.9 °F - 37.9 °F 66% 29.55 in 10.0 mi West 11.5 mph - N/A   Partly Cloudy
12:00 PM 50.0 °F - 36.0 °F 59% 29.55 in 10.0 mi WSW 9.2 mph - N/A   Mostly Cloudy
2:00 PM 51.1 °F - 37.9 °F 61% 29.53 in 10.0 mi WSW 6.9 mph - N/A   Overcast
3:00 PM 51.1 °F - 37.9 °F 61% 29.53 in 10.0 mi WSW 8.1 mph - N/A   Overcast
4:00 PM 51.1 °F - 37.9 °F 61% 29.54 in 10.0 mi West 6.9 mph - N/A   Overcast
5:00 PM 50.0 °F - 37.0 °F 61% 29.56 in 10.0 mi West 9.2 mph - N/A   Scattered Clouds
6:00 PM 48.0 °F - 37.9 °F 68% 29.58 in 10.0 mi Calm Calm - N/A   Overcast
6:08 PM - - - N/A% - - North - - N/A   Unknown
7:00 PM 46.9 °F - 39.0 °F 74% 29.60 in 10.0 mi Calm Calm - N/A   Overcast
8:00 PM 44.1 °F - 39.0 °F 82% 29.60 in 10.0 mi Calm Calm - N/A   Scattered Clouds
9:00 PM 41.0 °F - 39.0 °F 93% 29.60 in 10.0 mi Calm Calm - N/A   Mostly Cloudy
10:00 PM 39.9 °F - 37.9 °F 93% 29.61 in 10.0 mi Calm Calm - N/A   Clear
11:00 PM 39.9 °F 37.8 °F 37.9 °F 93% 29.61 in 10.0 mi WSW 3.5 mph - N/A   Mostly Cloudy